Wind_Speed
24 22 23 24 24 24 25 25 23 22 21 22 22 23 23 23 22 22 21 20 19 19 19 19 19 18 18 17 17 17 17 17 16 16 16 17 17 18 18 17 17 17 17 17
26 24 24 24 25 24 25 25 25 24 23 24 25 25 24 25 24 24 23 22 21 21 20 20 20 19 19 19 18 19 19 18 18 18 18 18 19 19 19 19 19 19 19 19
26 25 26 27 26 25 25 25 27 27 26 27 27 27 27 27 26 25 24 24 23 22 22 21 21 21 20 20 20 19 19 19 19 19 18 19 19 19 19 20 20 20 20 20
26 25 27 25 25 25 26 26 27 28 28 29 30 29 29 29 28 27 26 25 25 24 23 23 23 23 22 22 22 21 20 20 20 20 20 21 21 20 21 21 21 22 22 22
27 27 27 24 25 25 25 26 27 28 30 30 29 29 30 30 29 28 27 26 25 25 25 25 24 24 24 23 23 23 22 22 21 21 22 22 21 21 22 22 22 22 23 23
27 27 26 26 25 26 25 26 27 27 28 29 29 29 29 30 28 28 27 27 26 25 25 25 25 25 25 24 24 23 23 23 23 22 22 22 22 23 23 23 23 23 23 23
28 28 27 26 25 25 25 26 27 27 27 27 27 28 28 28 27 28 27 27 27 26 25 25 25 26 26 26 25 25 24 24 24 24 24 24 24 24 25 24 24 24 24 24
26 28 29 27 26 26 26 27 27 26 26 26 27 28 28 27 27 27 27 27 27 27 26 26 26 26 26 26 26 26 26 26 26 26 26 26 26 26 26 26 26 25 26 26
28 28 27 28 28 28 28 27 28 27 26 26 26 28 29 28 27 27 27 27 27 27 27 27 26 26 26 26 27 27 27 27 27 26 27 27 27 27 27 26 26 26 27 27
28 28 29 28 28 28 28 28 27 27 26 26 27 27 27 26 27 27 28 27 27 28 28 27 28 27 27 27 27 27 26 27 27 27 27 27 27 27 27 27 27 27 27 28
28 28 29 29 29 28 28 28 26 26 26 27 27 26 26 25 26 27 27 27 27 28 28 28 28 28 27 27 27 27 27 27 26 26 26 26 26 27 27 27 28 28 29 29
27 27 29 29 28 28 28 28 27 26 26 26 25 25 25 25 25 26 26 27 28 28 28 28 28 28 28 27 26 26 26 26 26 26 27 28 29 28 28 28 29 30 30 30
28 28 28 27 27 27 27 27 27 27 26 27 27 27 27 26 26 26 26 27 27 29 29 28 28 28 28 27 27 27 27 28 28 28 29 29 29 29 28 29 30 30 30 30
26 27 27 27 26 26 26 26 26 26 27 28 28 28 28 27 27 27 27 27 28 28 28 29 29 29 28 28 28 29 29 29 29 29 30 30 30 30 30 30 30 30 31 31
25 27 26 26 25 26 26 26 26 26 26 27 27 28 28 28 28 28 27 28 28 28 28 28 28 28 28 29 30 30 30 30 31 31 31 31 31 31 32 32 31 31 32 32
24 25 25 25 24 25 25 26 26 26 26 26 27 28 29 29 29 29 29 29 29 28 28 28 28 28 29 30 30 31 31 31 31 31 31 32 32 31 31 32 32 32 32 32
23 24 24 23 23 23 25 25 26 26 26 26 27 28 28 29 29 29 29 29 29 28 28 28 28 29 30 30 31 31 32 32 32 32 32 32 32 32 32 32 32 32 32 32
23 23 24 24 23 23 24 24 25 26 28 27 28 28 28 29 29 29 29 30 29 28 27 28 29 29 30 30 31 31 31 32 32 32 32 33 33 33 33 33 33 34 34 35
21 22 23 24 23 23 24 24 25 26 27 27 27 28 28 28 28 28 29 29 29 28 28 28 29 30 31 31 31 31 31 32 32 32 33 33 34 35 35 35 35 35 36 36
21 21 22 23 23 24 25 25 25 26 27 27 27 27 27 27 27 27 28 27 27 27 28 28 29 29 31 31 31 31 31 32 32 32 33 34 35 35 35 36 36 36 36 37
20 20 20 21 22 23 24 24 24 24 25 26 25 25 25 25 26 26 26 27 27 27 28 29 29 29 29 29 30 30 31 32 32 33 34 35 35 35 35 36 36 37 37 37
18 19 19 19 20 22 22 22 22 22 23 23 22 23 23 24 24 25 25 26 26 26 27 28 29 29 29 29 30 31 32 32 32 33 34 35 35 36 36 36 37 37 37 37
17 18 18 19 19 19 20 21 21 20 20 20 21 21 22 23 23 23 24 24 24 25 26 27 27 28 28 28 29 29 30 31 31 32 32 33 34 34 34 35 36 36 36 36
16 16 17 17 17 18 18 19 19 19 19 19 20 20 21 21 21 22 23 23 24 25 26 26 26 26 27 27 27 28 29 29 30 30 30 31 32 33 33 34 34 34 35 35
14 14 14 15 16 16 17 17 17 17 17 18 18 18 19 20 21 21 22 23 24 24 25 25 25 25 26 26 27 27 28 29 29 30 30 31 31 31 32 32 32 33 33 33
15 14 14 14 15 16 16 16 16 17 17 17 18 18 19 20 21 21 22 23 23 24 24 25 25 25 26 27 27 27 27 28 28 29 30 30 31 31 31 32 32 32 32 32
13 14 14 15 15 15 16 16 16 16 17 17 18 18 19 20 20 21 21 22 22 23 24 24 24 25 25 26 26 27 27 28 28 29 30 30 31 31 31 31 31 31 31 31
Wind_Direction
225 226 233 237 237 238 241 240 242 244 248 250 252 257 261 264 265 267 270 274 275 274 274 275 276 278 283 285 287 287 285 284 286 285 284 287 290 293 294 294 296 297 298 298
230 230 229 230 235 237 241 244 246 245 245 250 252 255 261 263 264 267 269 271 273 273 273 273 273 276 280 283 285 285 284 283 283 284 283 285 288 290 291 292 293 294 295 296
230 234 235 231 230 235 241 245 247 248 247 249 252 255 260 261 263 264 266 268 271 272 272 272 272 275 278 280 282 283 283 281 280 283 284 284 285 287 289 290 291 290 290 292
228 235 239 233 234 236 239 242 243 245 247 249 253 256 258 260 261 263 264 266 268 270 271 271 272 274 277 278 280 280 281 281 280 280 283 284 285 287 289 290 291 292 292 291
231 235 243 243 238 237 241 244 246 248 250 251 255 257 257 258 261 263 265 266 267 269 270 270 271 273 275 277 279 278 278 278 279 279 280 282 284 286 286 288 290 291 291 293
233 236 241 245 243 243 244 248 249 251 252 253 254 255 257 259 260 262 264 265 265 266 269 269 270 271 273 274 276 276 277 277 277 278 279 280 282 283 284 286 287 289 291 292
232 235 240 243 245 243 242 247 250 251 251 252 252 253 258 260 261 262 263 263 263 265 266 268 269 270 270 271 273 275 276 275 274 275 276 277 280 282 283 284 285 287 288 290
235 236 239 239 242 241 244 249 250 251 252 254 254 255 258 260 262 263 263 263 263 263 264 266 268 269 270 270 272 274 275 274 273 274 274 276 278 281 282 283 284 284 286 288
237 237 239 243 244 244 245 250 251 253 254 256 256 258 259 259 260 262 263 263 262 262 263 265 267 268 270 270 272 273 275 275 274 275 275 276 278 281 282 284 285 285 286 287
237 236 239 245 246 244 246 250 253 253 255 256 257 260 262 260 260 260 260 262 262 262 261 262 264 267 269 271 273 272 273 276 276 275 276 276 277 278 280 283 286 287 288 288
237 238 241 244 247 249 250 250 251 254 256 257 257 262 263 260 261 260 262 261 264 264 262 262 263 265 269 272 273 273 273 274 274 276 279 280 279 278 279 282 284 286 288 290
238 239 241 244 246 248 250 252 254 256 257 260 261 263 264 263 263 263 263 263 264 265 265 263 263 265 267 270 273 274 274 275 277 278 280 280 280 281 281 283 284 285 287 289
239 241 243 244 247 247 250 252 255 256 257 258 261 262 262 264 265 264 266 266 266 266 265 263 262 264 266 268 271 274 276 277 278 279 281 281 281 281 283 284 285 286 288 289
239 241 243 244 247 248 250 253 255 257 257 258 259 260 261 263 266 266 266 266 267 267 264 263 263 263 265 268 271 273 275 277 278 279 280 281 282 282 283 284 285 286 287 289
239 241 243 244 247 249 250 253 257 258 258 259 260 262 265 266 267 268 267 267 269 268 267 267 268 268 269 270 271 272 275 275 276 277 279 280 280 282 284 285 286 287 288 289
243 243 243 246 249 249 250 252 255 259 261 262 263 264 266 267 268 268 268 270 270 268 267 268 269 270 272 273 273 274 275 276 276 277 279 280 281 282 282 284 285 287 288 290
244 245 247 250 252 253 254 254 256 262 266 266 266 267 267 267 267 267 268 269 269 269 268 268 269 271 272 273 273 275 277 277 277 278 279 280 280 280 281 283 284 286 288 289
244 247 249 251 253 256 258 259 259 263 267 268 269 269 269 269 268 267 267 268 270 271 270 270 272 273 274 274 274 276 277 277 277 277 278 278 278 279 281 283 284 286 288 290
243 245 248 251 254 257 260 262 263 265 267 269 269 269 269 269 269 268 267 267 270 271 272 273 273 274 274 274 276 278 278 277 277 278 279 279 279 280 281 282 283 285 288 290
250 250 253 255 255 259 262 264 265 267 269 270 269 270 269 270 270 270 270 269 271 275 276 277 278 278 277 276 277 279 280 280 280 280 280 281 281 281 281 283 284 285 288 290
253 254 255 257 259 260 262 264 265 267 268 269 269 268 268 269 270 271 272 272 274 277 278 280 281 281 279 279 280 280 281 281 282 283 283 283 282 281 282 285 286 286 288 289
257 258 257 260 261 261 262 263 266 267 267 266 266 267 268 270 272 273 274 276 278 279 280 280 280 280 279 280 281 282 283 283 284 284 284 285 284 284 284 286 286 287 289 290
258 261 260 259 261 263 262 262 265 266 267 266 267 268 270 273 274 275 277 278 280 282 283 284 283 281 280 282 284 285 286 286 286 286 286 286 286 287 288 289 289 288 289 289
259 260 260 261 262 264 263 263 263 264 268 269 271 273 276 277 278 278 279 280 281 283 285 286 285 284 284 285 286 287 288 287 288 288 289 289 289 289 291 291 291 290 290 290
260 261 261 262 266 268 270 266 265 270 272 273 276 277 278 281 282 282 282 283 282 283 284 284 284 285 285 286 288 289 290 291 290 290 290 290 290 290 291 291 292 292 292 292
261 261 264 267 269 271 276 273 269 271 273 274 275 277 280 282 284 286 287 286 285 285 285 286 285 285 287 289 290 290 290 291 292 293 293 292 292 291 291 291 292 293 294 294
264 263 264 267 269 270 272 272 272 274 275 274 276 279 282 285 288 290 290 289 287 287 288 287 287 289 291 292 292 292 293 293 293 295 296 295 294 292 292 293 293 293 294 295
Height
5849 5852 5855 5857 5860 5862 5864 5867 5869 5871 5872 5872 5872 5871 5871 5873 5874 5874 5875 5876 5876 5877 5877 5877 5877 5877 5877 5877 5876 5876 5875 5875 5875 5874 5873 5872 5872 5871 5869 5868 5867 5867 5865 5864
5842 5845 5848 5851 5854 5856 5859 5861 5864 5865 5866 5866 5865 5866 5866 5867 5869 5869 5870 5871 5871 5872 5872 5872 5873 5873 5872 5872 5872 5871 5871 5871 5870 5870 5869 5868 5867 5866 5865 5864 5863 5862 5861 5860
5836 5839 5841 5844 5847 5851 5853 5855 5857 5858 5860 5859 5859 5860 5861 5861 5863 5863 5864 5865 5865 5866 5867 5867 5867 5867 5867 5867 5867 5867 5866 5866 5865 5865 5864 5863 5862 5861 5860 5859 5858 5857 5856 5855
5830 5833 5834 5840 5842 5844 5847 5848 5850 5851 5852 5852 5853 5854 5854 5855 5856 5857 5858 5859 5860 5860 5861 5861 5862 5862 5862 5862 5862 5862 5861 5861 5860 5860 5859 5858 5857 5856 5855 5854 5853 5852 5851 5850
5823 5826 5828 5832 5835 5836 5839 5841 5842 5844 5844 5845 5846 5847 5847 5848 5849 5850 5851 5852 5853 5854 5854 5855 5855 5856 5856 5856 5856 5856 5856 5855 5854 5854 5853 5853 5852 5851 5850 5849 5848 5846 5845 5844
5816 5819 5822 5826 5828 5830 5833 5833 5835 5836 5837 5838 5838 5840 5840 5841 5842 5843 5844 5845 5846 5847 5848 5848 5849 5849 5850 5850 5850 5850 5850 5849 5848 5848 5847 5847 5846 5845 5844 5843 5842 5841 5839 5838
5809 5813 5815 5819 5820 5823 5826 5826 5827 5828 5829 5830 5831 5833 5833 5833 5835 5836 5838 5839 5839 5840 5841 5842 5842 5843 5843 5843 5843 5843 5843 5842 5842 5841 5841 5840 5840 5839 5838 5837 5835 5834 5833 5832
5803 5806 5810 5812 5813 5815 5817 5818 5819 5820 5822 5823 5824 5825 5826 5827 5828 5829 5830 5831 5832 5833 5834 5835 5835 5835 5836 5836 5836 5836 5836 5835 5835 5834 5834 5833 5833 5832 5831 5830 5829 5827 5826 5825
5797 5800 5802 5803 5804 5806 5809 5811 5812 5814 5816 5817 5818 5818 5819 5821 5822 5822 5823 5824 5825 5826 5827 5827 5828 5828 5828 5829 5829 5829 5828 5828 5827 5827 5826 5826 5825 5824 5823 5822 5821 5820 5819 5817
5788 5792 5794 5795 5797 5799 5802 5804 5805 5807 5808 5810 5811 5811 5812 5813 5814 5815 5816 5817 5817 5818 5819 5820 5820 5821 5821 5821 5821 5821 5821 5820 5820 5819 5818 5817 5817 5816 5815 5814 5813 5812 5811 5809
5782 5785 5788 5789 5791 5792 5795 5797 5798 5800 5801 5802 5803 5803 5804 5806 5807 5807 5808 5809 5810 5811 5811 5812 5813 5813 5813 5814 5814 5813 5813 5813 5812 5811 5810 5809 5809 5808 5807 5806 5805 5804 5803 5801
5776 5778 5780 5782 5784 5786 5788 5790 5791 5793 5794 5795 5796 5797 5798 5799 5800 5800 5801 5802 5802 5803 5803 5804 5805 5805 5806 5806 5806 5806 5806 5805 5804 5804 5803 5802 5801 5799 5798 5798 5797 5795 5794 5792
5769 5772 5774 5776 5778 5780 5781 5783 5785 5786 5787 5789 5789 5790 5791 5792 5793 5793 5794 5794 5794 5795 5795 5795 5796 5797 5798 5798 5799 5799 5798 5798 5797 5796 5795 5794 5793 5792 5791 5790 5788 5787 5785 5783
5763 5766 5768 5770 5772 5773 5775 5777 5778 5779 5780 5781 5782 5783 5783 5784 5785 5786 5786 5786 5787 5786 5787 5788 5788 5789 5790 5790 5791 5791 5790 5790 5789 5788 5787 5786 5785 5783 5782 5781 5779 5778 5776 5775
5757 5759 5761 5763 5765 5767 5769 5771 5772 5772 5773 5774 5775 5776 5775 5776 5777 5778 5778 5778 5778 5779 5779 5779 5780 5780 5781 5781 5782 5782 5781 5781 5780 5780 5779 5778 5776 5774 5773 5772 5770 5769 5767 5765
5751 5753 5755 5758 5759 5761 5762 5764 5765 5765 5766 5767 5768 5768 5768 5769 5769 5770 5770 5770 5770 5770 5771 5771 5772 5772 5772 5772 5772 5772 5772 5772 5771 5771 5770 5768 5767 5766 5764 5763 5761 5759 5758 5756
5746 5748 5750 5752 5753 5755 5756 5757 5758 5759 5759 5760 5760 5761 5761 5761 5761 5762 5762 5762 5762 5762 5763 5763 5763 5764 5764 5764 5764 5764 5763 5763 5762 5761 5760 5759 5758 5756 5755 5753 5752 5750 5748 5746
5741 5743 5744 5746 5747 5749 5750 5751 5752 5752 5752 5753 5753 5753 5753 5753 5753 5753 5754 5754 5754 5754 5755 5755 5755 5755 5755 5754 5754 5754 5754 5753 5752 5752 5751 5750 5748 5747 5745 5744 5742 5740 5738 5736
5736 5738 5739 5740 5742 5743 5744 5744 5745 5745 5745 5745 5745 5745 5745 5745 5745 5745 5745 5746 5746 5746 5746 5746 5746 5746 5745 5745 5745 5744 5744 5744 5743 5742 5741 5740 5739 5737 5735 5734 5732 5730 5727 5725
5731 5732 5733 5734 5736 5736 5737 5738 5738 5738 5738 5738 5738 5738 5737 5737 5737 5737 5737 5738 5738 5738 5738 5737 5737 5737 5737 5736 5736 5735 5735 5734 5733 5732 5731 5729 5728 5727 5725 5723 5721 5719 5716 5714
5727 5727 5728 5729 5730 5730 5731 5731 5731 5731 5731 5731 5731 5731 5730 5730 5730 5730 5730 5731 5731 5730 5730 5729 5729 5728 5728 5727 5727 5726 5725 5724 5723 5722 5720 5719 5717 5716 5714 5712 5710 5708 5705 5703
5722 5723 5723 5724 5724 5724 5724 5725 5725 5725 5725 5725 5724 5724 5724 5724 5724 5723 5723 5724 5724 5723 5722 5721 5721 5720 5719 5718 5718 5717 5716 5714 5712 5711 5710 5708 5706 5705 5703 5701 5699 5696 5694 5692
5717 5718 5718 5718 5719 5719 5719 5718 5718 5718 5718 5718 5718 5718 5718 5718 5718 5717 5717 5717 5716 5715 5714 5713 5712 5711 5711 5710 5709 5707 5706 5704 5703 5701 5699 5698 5696 5694 5692 5689 5687 5685 5683 5680
5713 5713 5714 5714 5714 5714 5714 5713 5713 5713 5713 5712 5712 5712 5712 5712 5712 5711 5710 5710 5709 5708 5707 5706 5705 5704 5703 5701 5700 5698 5697 5695 5693 5692 5690 5688 5686 5684 5682 5679 5677 5674 5672 5669
5709 5709 5709 5709 5709 5709 5709 5708 5708 5708 5708 5707 5707 5707 5707 5706 5705 5704 5704 5703 5702 5701 5700 5699 5698 5697 5695 5693 5691 5690 5688 5686 5684 5682 5680 5678 5676 5673 5671 5669 5666 5664 5661 5659
5705 5705 5705 5706 5705 5705 5704 5704 5704 5704 5703 5703 5702 5702 5701 5700 5699 5698 5697 5696 5695 5694 5693 5692 5690 5689 5687 5685 5683 5681 5679 5677 5675 5673 5671 5668 5666 5663 5661 5659 5657 5654 5651 5649
5701 5702 5702 5702 5701 5701 5700 5700 5699 5699 5698 5698 5697 5697 5696 5695 5693 5692 5691 5690 5689 5687 5686 5684 5682 5680 5679 5677 5675 5673 5671 5669 5666 5664 5662 5659 5657 5654 5652 5649 5646 5644 5641 5638